Location: Ann Marie Estates
(40.9541°N, 81.4318°W)
Time: 15:53:26
(UTC+00:00)

Daily predictions for brighter satellites

Satellite Brightness Start Highest point End
(mag) Time Altitude Azimuth Time Altitude Azimuth Time Altitude Azimuth
SL-16 R/B 2.2 12:00:05 10° SW 12:05:42 62° WNW 12:11:22 10° NNE
CORIOLIS 4.2 12:01:43 10° N 12:07:10 78° WNW 12:12:36 10° SSW
USA 281 4.2 12:02:19 10° N 12:07:21 24° NW 12:12:21 10° W
Cosmos 1812 2.5 22:21:01 10° S 22:24:41 75° E 22:28:21 10° N
Cosmos 1666 3.3 22:25:16 10° NNW 22:28:45 56° W 22:32:14 10° S
Cosmos 1782 3.3 22:26:21 10° SSE 22:29:58 38° E 22:33:37 10° NNE
CZ-4B R/B 4.4 22:27:23 10° ESE 22:31:23 25° ENE 22:35:19 10° NNE
Cosmos 1603 3.7 22:26:03 10° NNW 22:31:43 69° ENE 22:37:19 10° SSE
Meteor 1-20 Rocket 4.2 22:29:49 10° N 22:35:27 73° E 22:41:10 10° SSE
SAR-Lupe-2 3.6 22:33:33 10° SSE 22:37:07 86° WSW 22:40:43 10° NNW
YAOGAN 11 4.2 22:32:38 10° NNE 22:37:12 89° WNW 22:41:44 10° SSW
CZ-2D R/B 3.5 22:34:47 10° S 22:38:26 71° WSW 22:42:05 10° NNW
Cosmos 220 Rocket 4.4 22:35:26 10° N 22:39:27 38° ENE 22:43:22 10° SE
SL-4 R/B 2.7 22:39:18 10° SSW 22:42:12 28° SE 22:44:47 12° ENE
AQUARIUS 4.3 22:40:44 10° SSE 22:45:03 52° ENE 22:49:24 10° N
Meteor 2-2 Rocket 4.3 22:40:11 10° S 22:45:57 81° E 22:51:52 10° NNE
Cosmos 2026 Rocket 4.1 22:42:15 10° S 22:48:22 59° E 22:54:36 10° NNE
SMAP 3.0 22:43:47 10° SSE 22:48:24 76° ENE 22:53:05 10° N
COSMOS 2455 3.4 22:43:54 10° S 22:49:21 38° ESE 22:54:43 11° NE
Cosmos 1943 4.0 22:45:14 10° NNW 22:50:46 57° WSW 22:56:16 10° S
CZ-2C R/B 3.0 22:47:36 10° S 22:51:08 67° WSW 22:54:45 10° NNW
Timation 2 Rocket 3.9 22:46:54 10° SSW 22:52:50 81° ESE 22:58:56 10° NNE
Cosmos 1812 Rocket 4.1 22:52:04 10° SSW 22:56:20 60° W 23:00:40 10° N
Cosmos 2195 Rocket 4.5 22:50:30 10° S 22:56:48 82° E 23:03:05 10° N
Cosmos-2242 4.3 22:54:26 10° SSW 22:58:33 43° WNW 23:02:41 10° N
Cosmos 192 4.5 22:54:38 10° SSW 22:59:30 78° WNW 23:04:26 10° NNE
ATLAS CENTAUR R/B 3.6 22:55:55 10° NW 23:00:42 63° SW 23:10:03 10° SSE
RESURS DK-1 2.8 22:57:01 10° N 23:00:53 38° ENE 23:04:42 10° SE
SL-08 R/B 4.3 22:58:39 13° NE 23:01:54 25° E 23:05:45 10° SSE
Cosmos 1515 4.1 23:00:05 10° SSE 23:03:23 36° E 23:06:13 13° NNE
Cosmos 407 Rocket 4.0 22:59:26 10° NNW 23:04:31 63° WSW 23:09:32 10° S
Meteor 2-17 Rocket 4.4 22:58:33 10° S 23:04:41 82° E 23:10:49 10° N
ATLAS 2AS CENTAUR R/B 2.7 23:02:23 10° NNW 23:09:08 57° NE 23:15:34 10° SE
Cosmos 2221 2.5 23:05:23 10° S 23:09:32 59° E 23:13:41 10° NNE
Cosmos 1092 Rocket 4.0 23:05:41 10° S 23:11:48 88° W 23:17:59 10° N
NOAA 6 4.2 23:07:34 10° SE 23:12:27 47° ENE 23:17:20 10° N
USA 276 4.1 23:12:20 10° NNW 23:12:52 11° N 23:12:52 11° N
CZ-4B R/B 4.2 23:11:42 10° S 23:15:14 59° W 23:18:52 10° NNW
Cosmos 1833 Rocket 3.9 23:12:55 10° N 23:17:02 20° NE 23:17:16 20° NE
Cosmos 1844 4.1 23:12:37 10° SSW 23:18:20 67° WNW 23:24:04 10° NNE
Cosmos 1954 Rocket 3.9 23:16:14 10° NNW 23:21:29 74° ENE 23:26:39 10° SSE
Cosmos 2056 Rocket 3.9 23:17:39 10° SSW 23:23:00 70° WNW 23:28:27 10° NNE
Cosmos 2344 4.3 23:23:44 10° WSW 23:30:58 46° NW 23:38:00 10° NNE
Meteor 1-31 Rocket 4.4 23:29:36 10° SSW 23:33:00 35° W 23:36:26 10° NNW
Okean 3 Rocket 3.6 23:31:24 10° N 23:35:52 55° E 23:40:18 10° SSE
Radarsat Rocket 3.8 23:30:25 10° SSE 23:36:13 75° ENE 23:42:23 10° NNW
Cosmos 1844 Rocket 3.8 23:31:34 10° SW 23:36:47 40° WNW 23:42:02 10° N
COSMO-SKYMED 1 2.5 23:34:10 12° NNE 23:38:13 88° ESE 23:42:33 10° SSW
Gbstr 26 Del rocket 4.3 23:35:12 10° S 23:39:00 23° SE 23:39:12 23° SE
OAO 2 Rocket 4.4 23:35:20 10° SW 23:39:47 33° SSE 23:41:45 24° SE
Cosmos 1452 Rocket 3.7 23:35:12 10° S 23:40:14 49° ESE 23:42:07 34° NE
USA 234 3.2 23:36:33 24° NE 23:40:48 83° SE 23:47:21 10° SW
Cosmos 1271 Rocket 2.8 23:37:57 10° NNW 23:41:50 76° W 23:45:41 10° S
Helios 1A 4.0 23:43:47 10° N 23:47:45 45° WNW 23:51:40 10° SW
DELTA 2 R/B (1) 4.0 23:49:01 10° SW 23:54:24 50° SSE 23:55:52 40° ESE
